TIME,DELAY(SENSOR),PRES,OXYGEN,RAWTEMP,T(OPTODE),TCPHASE,FLUOR,BETA(BETA700),BETA(BETA412),BETA(BETA440),CDOM,C(CSC),ED(ED412.40),ED(ED444.00),ED(ED489.70),ED(ED554.30),LU(LU411.80),LU(LU443.40),LU(LU489.60),LU(LU554.10),COMP,TILTX,TILTY,CHECK
1350530473,5812,833.8900146484375000,43.1222610473632800,660.6879882812500000,4.6053199768066410,54.5444412231445300,53,100,88,79,81,15196,2147757366,2147421147,2148010825,2147871908,2147641106,2147066532,2148259108,2147198262,2305,5,13,8805
1350534069,5812,886.7700195312500000,46.0675697326660160,667.5659179687500000,4.3785719871521000,54.1948890686035160,52,100,88,79,81,15193,2147759241,2147424694,2148012196,2147871643,2147643657,2147069741,2148260498,2147198253,22,5,13,64886
1350537669,5809,901.6400146484375000,46.9599494934082000,668.8944702148438000,4.3347067832946780,54.0842399597168000,53,99,87,80,81,15198,2147761490,2147421449,2148009115,2147872859,2147643739,2147063332,2148264676,2147201389,156,5,13,34572
1350541269,5809,945.0800170898438000,46.8090896606445300,669.7490234375000000,4.3064880371093750,54.1137504577636700,53,100,89,79,82,15201,2147758445,2147423597,2148008804,2147868297,2147639341,2147063789,2148262262,2147196224,2995,5,13,54271
1350544869,5808,950.9199829101562000,45.9475898742675800,668.2271728515625000,4.3567409515380860,54.2164916992187500,53,98,87,79,82,15200,2147756562,2147424091,2148009334,2147873956,2147641856,2147063561,2148268754,2147200548,3398,5,13,16957
1350548469,5811,955.6400146484375000,45.5386695861816400,667.7747802734375000,4.3716750144958500,54.2692985534668000,52,99,85,80,80,15200,2147755346,2147424713,2148008868,2147872374,2147642880,2147063204,2148265709,2147191954,169,5,13,58098
1350552069,5808,984.7199707031250000,46.3763084411621100,669.2667236328125000,4.3224201202392580,54.1698913574218750,53,101,87,79,81,15200,2147754560,2147425920,2148011373,2147871899,2147639853,2147065115,2148261174,2147197001,3449,4,13,3888
1350555669,5805,973.1500244140625000,46.6602210998535160,670.9514160156250000,4.2667660713195800,54.1478118896484400,53,100,87,79,81,15199,2147759341,2147422939,2148013028,2147871899,2147644900,2147063616,2148263917,2147197211,2866,4,13,31740
1350559269,5811,965.6300048828125000,47.1727294921875000,672.5712280273438000,4.2132229804992680,54.0996513366699200,52,98,86,79,81,15198,2147759460,2147422756,2148013842,2147872091,2147642870,2147059574,2148257289,2147198683,3142,4,13,29953
1350562869,5810,979.3900146484375000,47.3489418029785160,672.7667846679688000,4.2067551612854000,54.0774383544921900,52,97,89,78,81,15200,2147756589,2147421933,2148009929,2147874212,2147641819,2147064274,2148260333,2147198948,3505,4,13,27083
1350566469,5809,975.7199707031250000,47.2624206542968750,672.7265014648438000,4.2080879211425780,54.0900802612304700,53,98,88,78,81,15195,2147757366,2147422765,2148011245,2147873517,2147643227,2147066468,2148259328,2147195638,3408,5,13,13745
1350570069,5810,976.6500244140625000,47.3444099426269500,672.7174072265625000,4.2083888053894040,54.0723609924316400,51,103,85,78,81,15194,2147755090,2147421312,2148010560,2147872704,2147644644,2147062107,2148268242,2147197101,3446,4,13,47958
1350573669,5810,973.7800292968750000,47.8990211486816400,674.2786865234375000,4.1567502021789550,54.0190391540527340,52,101,88,78,81,15193,2147757467,2147421065,2148008283,2147873837,2147646400,2147062966,2148265398,2147198738,3432,5,13,16971
1350577269,5811,970.8800048828125000,47.9451103210449200,674.1378784179688000,4.1614069938659670,54.0045318603515600,53,103,85,79,81,15189,2147759058,2147424438,2148008530,2147870555,2147644169,2147060562,2148268717,2147199744,243,5,13,44218
1350580869,5808,967.0300292968750000,47.9893417358398440,674.9061279296875000,4.1359920501708980,54.0103416442871100,52,99,89,80,81,15193,2147758610,2147420955,2148010157,2147874880,2147645842,2147064210,2148256603,2147198683,45,5,13,9249
1350584469,5807,975.4699707031250000,48.0357208251953100,674.9957275390625000,4.1330280303955080,54.0070610046386700,53,99,88,78,82,15193,2147758473,2147419858,2148011227,2147873362,2147639177,2147063424,2148264795,2147197659,151,5,13,48435
1350588069,5807,980.8099975585938000,48.1939010620117200,674.1267089843750000,4.1617789268493650,53.9734497070312500,53,99,88,80,81,15193,2147761380,2147422866,2148010240,2147873472,2147644096,2147064356,2148266925,2147196626,3332,5,13,30123
1350591669,5809,1004.3300170898438000,47.1075706481933600,671.7545166015625000,4.2402229309082030,54.0955696105957000,53,98,87,78,81,15192,2147760786,2147421065,2148011620,2147871396,2147644288,2147064603,2148265252,2147195693,42,5,13,3766
1350595269,5808,1004.9600219726562000,46.7427902221679700,670.8900146484375000,4.2687950134277340,54.1379089355468750,52,103,88,79,81,15190,2147757120,2147421778,2148010907,2147873133,2147641901,2147067309,2148261970,2147199451,3560,4,13,24211
1350598869,5807,999.0200195312500000,46.1866302490234400,670.7725219726562000,4.2726759910583500,54.2151985168457000,52,100,85,80,80,15191,2147757385,2147426377,2148010889,2147875538,2147641005,2147066944,2148258624,2147196178,182,5,13,8721
1350602469,5808,986.7800292968750000,46.0952110290527340,670.8792724609375000,4.2691478729248050,54.2287101745605500,52,99,91,78,81,15184,2147757622,2147426596,2148009938,2147873380,2147639579,2147063533,2148267364,2147195693,3359,4,13,47346
1350606069,5811,984.9600219726562000,46.4363098144531250,671.9616699218750000,4.2333741188049320,54.1968193054199200,52,99,87,79,82,15190,2147755894,2147419099,2148009316,2147875163,2147642011,2147062500,2148266797,2147193965,199,5,13,15023
1350609669,5806,979.7000122070312000,46.9527091979980500,672.7947998046875000,4.2058300971984860,54.1357383728027340,53,101,86,79,81,15188,2147756635,2147420818,2148011620,2147873947,2147644315,2147070884,2148264420,2147193572,753,5,13,13508
1350613269,5811,978.5000000000000000,46.6482200622558600,674.0140991210938000,4.1655039787292480,54.1853790283203100,52,100,86,80,80,15191,2147759524,2147423003,2148012260,2147873883,2147643629,2147058011,2148260169,2147192996,131,4,13,43488
1350616869,5812,977.6099853515625000,47.6864700317382800,674.2116699218750000,4.1589698791503910,54.0413284301757800,52,100,90,79,81,15189,2147759734,2147421586,2148012662,2147874715,2147644022,2147060041,2148262738,2147193225,438,5,13,47719
1350620469,5809,973.6500244140625000,48.4005203247070300,675.5493774414062000,4.1147060394287110,53.9635887145996100,52,101,88,79,81,15188,2147756352,2147421421,2148012918,2147870272,2147642742,2147063076,2148266486,2147194203,263,5,13,57100
1350624069,5808,972.2999877929688000,49.3329696655273440,676.4356079101562000,4.0853691101074220,53.8423004150390600,52,101,87,79,81,15189,2147758107,2147420873,2148012105,2147871451,2147640228,2147058852,2148263104,2147198692,3480,5,13,60199
1350627669,5809,982.0900268554688000,48.5602989196777340,674.9384155273438000,4.1349258422851560,53.9342384338378900,54,103,85,78,82,15185,2147755648,2147421805,2148008402,2147872347,2147642825,2147061878,2148267556,2147196342,3165,5,13,51215
1350631269,5810,991.4899902343750000,47.7240409851074200,673.2672729492188000,4.1902050971984860,54.0264396667480500,53,99,87,78,82,15184,2147757001,2147422144,2148010843,2147872237,2147644745,2147058505,2148263917,2147194980,143,5,13,6094
1350634869,5811,1011.1699829101562000,46.5602607727050800,670.5618896484375000,4.2796339988708500,54.1612091064453100,52,102,88,80,81,15185,2147756132,2147422500,2148010468,2147874806,2147644598,2147054802,2148261202,2147197440,85,5,13,61581
1350638469,5807,998.8800048828125000,46.7392807006835940,671.8710937500000000,4.2363681793212890,54.1527481079101560,52,98,87,79,82,15182,2147754834,2147421869,2148010358,2147874998,2147644297,2147061668,2148262052,2147198345,3463,4,13,32781
1350642069,5808,999.2800292968750000,46.3053894042968750,670.5947875976562000,4.2785449028015140,54.1932716369628900,52,100,88,80,81,15186,2147754907,2147420388,2148009892,2147871771,2147644278,2147062464,2148266614,2147195136,336,5,13,49596
1350645669,5810,986.0700073242188000,46.4982604980468750,672.4647216796875000,4.2167429924011230,54.1908988952636700,52,99,88,78,81,15185,2147753133,2147422473,2148013686,2147873673,2147643419,2147057846,2148259437,2147194962,809,4,13,19029
1350649269,5807,988.0300292968750000,47.0336608886718750,673.4210815429688000,4.1851181983947750,54.1245689392089840,53,98,89,79,81,15189,2147759094,2147419209,2148008850,2147873874,2147642870,2147059209,2148263945,2147197165,3455,4,13,51438
1350652869,5810,984.2399902343750000,47.8829383850097660,674.4506835937500000,4.1510620117187500,54.0189285278320300,53,100,89,78,82,15186,2147757842,2147420864,2148013878,2147870994,2147643126,2147064411,2148263908,2147197257,3309,5,13,42447
1350656469,5807,973.2000122070312000,48.0257492065429700,675.0230712890625000,4.1321239471435550,54.0075683593750000,53,99,87,79,81,15185,2147758080,2147419684,2148011702,2147872448,2147647497,2147063936,2148259995,2147197933,3589,5,13,41672
1350660069,5809,981.3200073242188000,48.5738906860351560,675.6066284179688000,4.1128120422363280,53.9358596801757800,52,97,88,79,81,15185,2147756937,2147422518,2148010889,2147874294,2147645750,2147064886,2148266825,2147199195,364,4,13,42954
1350663669,5810,986.1400146484375000,48.9627799987793000,676.3167724609375000,4.0893020629882810,53.8960304260253900,52,99,87,80,81,15180,2147755894,2147424877,2148010980,2147873837,2147649024,2147063780,2148264603,2147199853,99,5,13,15277
1350667269,5809,982.7899780273438000,48.0176086425781250,675.6914062500000000,4.1100039482116700,54.0191688537597660,53,101,86,79,80,15183,2147758610,2147424310,2148011446,2147869220,2147642477,2147059913,2148269220,2147194093,3566,4,13,50809
1350670869,5807,982.4199829101562000,47.6621093750000000,675.7020263671875000,4.1096529960632320,54.0680999755859400,52,99,84,78,82,15182,2147754660,2147420690,2148009581,2147877376,2147643584,2147068388,2148266102,2147199698,114,5,13,11151
1350674469,5808,983.7600097656250000,48.0655288696289060,674.9788208007812000,4.1335911750793460,54.0018806457519500,51,98,85,80,81,15180,2147758646,2147421924,2148009316,2147871789,2147643638,2147058386,2148269184,2147192987,117,5,13,51321
1350675655,5810,990.0300292968750000,47.9606399536132800,674.9636230468750000,4.1340899467468260,54.0135688781738300,52,100,84,79,82,15192,2147758546,2147419913,2148011574,2147876845,2147643675,2147062317,2148265600,2147198582,3275,4,13,57272
